This is the latest recevied weather packets stored in our database for station/object AA7VG. If no packets are shown the sender has not sent any weather packets the latest 10 day(s).
| Time | Temp. | Humidity | Pressure | Rain* | Wind** | Luminosity | Snow |
|---|---|---|---|---|---|---|---|
| 1777978840 | 0° C | 73% | 1014.6 hPa | 0 mm | - | - | - |
| 1777978536 | -0.56° C | 73% | 1014.7 hPa | 0 mm | - | - | - |
| 1777978232 | 0° C | 73% | 1014.7 hPa | 0 mm | - | - | - |
| 1777977929 | 0° C | 73% | 1014.5 hPa | 0 mm | - | - | - |
| 1777977627 | 0° C | 73% | 1014.8 hPa | 0 mm | - | - | - |
| 1777977323 | 0.56° C | 71% | 1014.6 hPa | 0 mm | - | - | - |
| 1777977021 | 0.56° C | 70% | 1014.8 hPa | 0 mm | - | - | - |
| 1777976718 | 0.56° C | 70% | 1014.4 hPa | 0 mm | - | - | - |
| 1777976415 | 1.11° C | 69% | 1014.7 hPa | 0 mm | - | - | - |
| 1777976114 | 0.56° C | 69% | 1014.7 hPa | 0 mm | - | - | - |
| 1777975809 | 0.56° C | 69% | 1014.7 hPa | 0 mm | - | - | - |
| 1777975507 | 0.56° C | 70% | 1014.6 hPa | 0 mm | - | - | - |
| 1777975203 | 0.56° C | 69% | 1014.7 hPa | 0 mm | - | - | - |
| 1777974900 | 0.56° C | 69% | 1014.7 hPa | 0 mm | - | - | - |
| 1777974596 | 1.11° C | 68% | 1014.7 hPa | 0 mm | - | - | - |
| 1777974293 | 1.11° C | 67% | 1014.7 hPa | 0 mm | - | - | - |
| 1777973989 | 1.11° C | 66% | 1015 hPa | 0 mm | - | - | - |
| 1777973686 | 1.67° C | 64% | 1014.7 hPa | 0 mm | - | - | - |
| 1777973383 | 1.67° C | 63% | 1014.7 hPa | 0 mm | - | - | - |
| 1777973081 | 1.67° C | 63% | 1014.6 hPa | 0 mm | - | - | - |
| 1777972778 | 1.67° C | 63% | 1014.7 hPa | 0 mm | - | - | - |
| 1777972475 | 2.22° C | 62% | 1014.5 hPa | 0 mm | - | - | - |
| 1777972173 | 2.22° C | 61% | 1015 hPa | 0 mm | - | - | - |
| 1777971871 | 2.22° C | 60% | 1014.7 hPa | 0 mm | - | - | - |
| 1777971568 | 2.78° C | 59% | 1015.1 hPa | 0 mm | - | - | - |
* Rain latest hour (hover to see other rain measurements)
** Current wind speed in m/s (hover to see current wind gust speed)